Back to catalog

STARLINK-31622

AliveCommunicationsVLEO
NORAD 59456·PAYLOAD·🇺🇸 United States

Launched Apr 10, 2024 from Cape Canaveral Space Force Station

Loading…

Next Passes (next 24 hours)

TLE

FreshSource: CelesTrak SupGP

Epoch: Sep 15, 2026, 02:45 UTC

1 59456C 24068B   26258.11506944 -.00028110  00000+0 -10175-2 0  2589
2 59456  43.0045  44.9583 0002072 281.3542 321.6786 15.27611970    19

Track STARLINK-31622 in real time with AllMySat

Download on the App Store